When you browse on this site, cookies collect data to enhance your experience and personalize the content and advertising you see.
Visit our Privacy Policy to learn more. By continuing to use the site, you agree to this use of cookies and data.
  • En España
  • Lista de países
  • Para 7 días
  • Temperatura del agua
  • El tiempo en el mapa
  • Informadores
  • user-avatar
    Iniciar sesión

    Tiempo cada hora Murcia

    Hoy, 17 Febrero, Lunes

    Tiempo Temperatura Precipitaciones Viento Presión Humedad
    00:00 +14°C° 0 mm 1 mps 765 mmHg 87%
    01:00 +14°C° 0 mm 1 mps 764 mmHg 86%
    02:00 +14°C° 0 mm 1 mps 764 mmHg 86%
    03:00 +13°C° 0 mm 1 mps 764 mmHg 85%
    04:00 +13°C° 0 mm 1 mps 764 mmHg 82%
    05:00 +13°C° 0 mm 1 mps 764 mmHg 80%
    06:00 +13°C° 0 mm 1 mps 764 mmHg 77%
    07:00 +15°C° 0 mm 1 mps 765 mmHg 68%
    08:00 +18°C° 0 mm 1 mps 765 mmHg 59%
    09:00 +20°C° 0 mm 1 mps 765 mmHg 50%
    10:00 +20°C° 0 mm 2 mps 765 mmHg 44%
    11:00 +23°C° 0 mm 2 mps 765 mmHg 38%
    12:00 +24°C° 0 mm 2 mps 765 mmHg 33%
    13:00 +25°C° 0 mm 2 mps 764 mmHg 31%
    14:00 +26°C° 0 mm 2 mps 764 mmHg 30%
    15:00 +26°C° 0 mm 2 mps 763 mmHg 28%
    16:00 +24°C° 0 mm 3 mps 764 mmHg 36%
    17:00 +21°C° 0 mm 3 mps 764 mmHg 44%
    18:00 +19°C° 0 mm 3 mps 764 mmHg 52%
    19:00 +18°C° 0 mm 3 mps 764 mmHg 55%
    20:00 +18°C° 0 mm 3 mps 765 mmHg 58%
    21:00 +17°C° 0 mm 3 mps 765 mmHg 61%
    22:00 +17°C° 0 mm 3 mps 765 mmHg 64%
    23:00 +16°C° 0 mm 2 mps 765 mmHg 67%

    Mañana, 18 Febrero, Martes

    Tiempo Temperatura Precipitaciones Viento Presión Humedad
    00:00 +16°C° 0 mm 2 mps 765 mmHg 70%
    01:00 +16°C° 0 mm 2 mps 765 mmHg 72%
    02:00 +15°C° 0 mm 2 mps 766 mmHg 75%
    03:00 +15°C° 0 mm 2 mps 766 mmHg 77%
    04:00 +14°C° 0 mm 3 mps 766 mmHg 77%
    05:00 +13°C° 0 mm 3 mps 766 mmHg 78%
    06:00 +13°C° 0 mm 3 mps 766 mmHg 79%
    07:00 +14°C° 0 mm 4 mps 767 mmHg 78%
    08:00 +14°C° 0 mm 4 mps 767 mmHg 78%
    09:00 +15°C° 0 mm 5 mps 768 mmHg 78%
    10:00 +15°C° 0.1 mm 5 mps 767 mmHg 79%
    11:00 +15°C° 0.1 mm 5 mps 767 mmHg 80%
    12:00 +15°C° 0.1 mm 5 mps 767 mmHg 81%
    13:00 +15°C° 0.1 mm 5 mps 767 mmHg 79%
    14:00 +15°C° 0.1 mm 5 mps 767 mmHg 77%
    15:00 +15°C° 0.1 mm 5 mps 766 mmHg 76%
    16:00 +15°C° 0 mm 5 mps 766 mmHg 78%
    17:00 +14°C° 0 mm 4 mps 766 mmHg 80%
    18:00 +13°C° 0 mm 4 mps 766 mmHg 82%
    19:00 +13°C° 0 mm 3 mps 767 mmHg 83%
    20:00 +13°C° 0 mm 3 mps 767 mmHg 85%
    21:00 +14°C° 0 mm 2 mps 767 mmHg 86%
    22:00 +14°C° 0 mm 2 mps 767 mmHg 85%
    23:00 +14°C° 0 mm 2 mps 767 mmHg 85%

    Pasado mañana, 19 Febrero, Miércoles

    Tiempo Temperatura Precipitaciones Viento Presión Humedad
    00:00 +14°C° 0 mm 2 mps 767 mmHg 85%
    01:00 +14°C° 0 mm 2 mps 767 mmHg 85%
    02:00 +14°C° 0 mm 2 mps 767 mmHg 86%
    03:00 +14°C° 0 mm 1 mps 767 mmHg 86%
    04:00 +13°C° 0.1 mm 2 mps 767 mmHg 86%
    05:00 +13°C° 0.1 mm 2 mps 767 mmHg 87%
    06:00 +13°C° 0.1 mm 2 mps 767 mmHg 87%
    07:00 +14°C° 0 mm 2 mps 767 mmHg 83%
    08:00 +14°C° 0 mm 2 mps 768 mmHg 80%
    09:00 +15°C° 0 mm 2 mps 768 mmHg 76%
    10:00 +15°C° 0 mm 2 mps 768 mmHg 72%
    11:00 +16°C° 0 mm 2 mps 768 mmHg 69%
    12:00 +16°C° 0 mm 2 mps 768 mmHg 65%
    13:00 +17°C° 0 mm 2 mps 767 mmHg 65%
    14:00 +17°C° 0 mm 2 mps 767 mmHg 64%
    15:00 +17°C° 0 mm 3 mps 767 mmHg 64%
    16:00 +16°C° 0 mm 2 mps 766 mmHg 70%
    17:00 +15°C° 0 mm 2 mps 766 mmHg 76%
    18:00 +14°C° 0 mm 2 mps 766 mmHg 81%
    19:00 +13°C° 0 mm 2 mps 766 mmHg 85%
    20:00 +12°C° 0 mm 1 mps 767 mmHg 89%
    21:00 +12°C° 0 mm 1 mps 767 mmHg 93%
    22:00 +11°C° 0 mm 1 mps 766 mmHg 93%
    23:00 +10°C° 0 mm 0 mps 766 mmHg 94%

    20 Febrero, Jueves

    Tiempo Temperatura Precipitaciones Viento Presión Humedad
    00:00 +9°C° 0 mm 0 mps 766 mmHg 95%
    01:00 +9°C° 0 mm 0 mps 765 mmHg 95%
    02:00 +9°C° 0 mm 0 mps 765 mmHg 95%
    03:00 +8°C° 0 mm 0 mps 764 mmHg 95%
    04:00 +8°C° 0 mm 0 mps 764 mmHg 95%
    05:00 +8°C° 0 mm 0 mps 763 mmHg 95%
    06:00 +7°C° 0 mm 0 mps 763 mmHg 95%
    07:00 +9°C° 0 mm 0 mps 763 mmHg 90%
    08:00 +12°C° 0 mm 1 mps 763 mmHg 85%
    09:00 +13°C° 0 mm 1 mps 763 mmHg 80%
    10:00 +15°C° 0 mm 1 mps 763 mmHg 72%
    11:00 +16°C° 0 mm 1 mps 762 mmHg 65%
    12:00 +19°C° 0 mm 1 mps 762 mmHg 57%
    13:00 +19°C° 0 mm 1 mps 761 mmHg 55%
    14:00 +19°C° 0 mm 2 mps 761 mmHg 54%
    15:00 +19°C° 0 mm 2 mps 760 mmHg 52%
    16:00 +17°C° 0 mm 2 mps 760 mmHg 61%
    17:00 +16°C° 0 mm 2 mps 760 mmHg 70%
    18:00 +14°C° 0 mm 2 mps 760 mmHg 79%
    19:00 +13°C° 0 mm 1 mps 760 mmHg 82%
    20:00 +12°C° 0 mm 1 mps 760 mmHg 85%
    21:00 +11°C° 0 mm 0 mps 761 mmHg 88%
    22:00 +11°C° 0 mm 0 mps 761 mmHg 88%
    23:00 +10°C° 0 mm 0 mps 761 mmHg 88%

    21 Febrero, Viernes

    Tiempo Temperatura Precipitaciones Viento Presión Humedad
    00:00 +10°C° 0 mm 0 mps 762 mmHg 88%
    01:00 +11°C° 0 mm 1 mps 762 mmHg 88%
    02:00 +12°C° 0 mm 2 mps 762 mmHg 87%
    03:00 +12°C° 0 mm 2 mps 762 mmHg 87%
    04:00 +12°C° 0 mm 2 mps 763 mmHg 88%
    05:00 +10°C° 0 mm 2 mps 763 mmHg 90%
    06:00 +10°C° 0 mm 2 mps 763 mmHg 92%
    13:00 +16°C° 0 mm 5 mps 767 mmHg 59%
    14:00 +16°C° 0 mm 6 mps 767 mmHg 60%
    15:00 +16°C° 0 mm 6 mps 767 mmHg 60%
    16:00 +15°C° 0 mm 5 mps 767 mmHg 65%
    17:00 +14°C° 0 mm 5 mps 767 mmHg 70%
    18:00 +13°C° 0 mm 5 mps 767 mmHg 75%
    19:00 +13°C° 0 mm 4 mps 768 mmHg 78%
    20:00 +12°C° 0 mm 3 mps 768 mmHg 80%
    21:00 +12°C° 0 mm 3 mps 769 mmHg 83%
    22:00 +12°C° 0 mm 2 mps 769 mmHg 84%
    23:00 +12°C° 0 mm 2 mps 770 mmHg 84%

    22 Febrero, Sábado

    Tiempo Temperatura Precipitaciones Viento Presión Humedad
    00:00 +12°C° 0 mm 2 mps 770 mmHg 85%
    01:00 +12°C° 0 mm 2 mps 770 mmHg 86%
    02:00 +10°C° 0 mm 2 mps 770 mmHg 87%
    03:00 +10°C° 0 mm 2 mps 770 mmHg 88%
    04:00 +9°C° 0 mm 2 mps 770 mmHg 89%
    05:00 +10°C° 0 mm 1 mps 770 mmHg 90%
    06:00 +9°C° 0 mm 1 mps 770 mmHg 90%
    07:00 +11°C° 0 mm 1 mps 770 mmHg 84%
    08:00 +13°C° 0 mm 2 mps 771 mmHg 79%
    09:00 +14°C° 0 mm 2 mps 771 mmHg 73%
    10:00 +15°C° 0 mm 2 mps 771 mmHg 67%
    11:00 +16°C° 0 mm 3 mps 771 mmHg 61%
    12:00 +17°C° 0 mm 4 mps 771 mmHg 55%
    13:00 +17°C° 0 mm 4 mps 771 mmHg 53%
    14:00 +18°C° 0 mm 4 mps 770 mmHg 52%
    15:00 +18°C° 0 mm 4 mps 770 mmHg 50%
    16:00 +15°C° 0 mm 4 mps 770 mmHg 59%
    17:00 +14°C° 0 mm 3 mps 770 mmHg 67%
    18:00 +13°C° 0 mm 2 mps 771 mmHg 76%
    19:00 +13°C° 0 mm 2 mps 771 mmHg 80%
    20:00 +12°C° 0 mm 2 mps 771 mmHg 84%
    21:00 +11°C° 0 mm 1 mps 772 mmHg 89%
    22:00 +11°C° 0 mm 1 mps 772 mmHg 89%
    23:00 +10°C° 0 mm 1 mps 772 mmHg 89%
    Mostrar más